Blacksburg, VA

12:51 PM EDT on June 23, 2017 (GMT -0400)
Virginia Tech

Weather History for KBCB - July, 2013

Change the Weather History Date:

Friday, July 26, 2013

  Actual Average Record
Temperature  
Mean Temperature 66 °F 71 °F  
Max Temperature 80 °F 82 °F 94 °F (1987)
Min Temperature 52 °F 60 °F 50 °F (1983)
Degree Days  
Heating Degree Days 0 0  
Month to date heating degree days 0 0  
Since 1 June heating degree days 7 38  
Since 1 July heating degree days 0 0  
Cooling Degree Days 1 6  
Month to date cooling degree days 205 162  
Year to date cooling degree days 352 310  
Since 1 June cooling degree days 321 281  
Growing Degree Days 16 (Base 50)    
Moisture  
Dew Point 62 °F    
Average Humidity 77    
Maximum Humidity 100    
Minimum Humidity 54    
Precipitation  
Precipitation 0.00 in 0.14 in 1.41 in (1988)
Month to date precipitation 5.94 3.58  
Year to date precipitation 35.75 24.92  
Snow  
Snow 0.00 in - - ()
Month to date snowfall 0.0  
Since 1 June snowfall T  
Since 1 July snowfall 0.0  
Snow Depth 0.00 in    
Sea Level Pressure  
Sea Level Pressure 30.15 in    
Wind  
Wind Speed 2 mph (SSW)    
Max Wind Speed 9 mph    
Max Gust Speed -    
Visibility 9 miles    
Events      
T = Trace of Precipitation, MM = Missing Value Source: NWS Daily Summary

Daily Weather History Graph

Daily Weather History Graph

Search for Another Location

Airport or City:

Trip Planner

Search our weather history database for the weather conditions in past years. The results will help you decide how hot, cold, wet, or windy it might be!

Date:

Astronomy

Jul. 26, 2013 Rise Set
Actual Time 6:21 AM EDT 8:34 PM EDT
Civil Twilight 5:52 AM EDT 9:03 PM EDT
Nautical Twilight 5:16 AM EDT 9:39 PM EDT
Astronomical Twilight 4:37 AM EDT 10:18 PM EDT
Moon 10:55 PM EDT (7/26) 10:48 AM EDT (7/26)
Length of Visible Light 15h 10m
Length of Day
14h 12m
Waning Gibbous, 80% of the Moon is Illuminated
Jul 26
Waning Gibbous
Jul 29
Last Quarter
Aug 6
New
Aug 14
First Quarter
Aug 20
Full

Hourly Weather History & Observations

Time (EDT) Temp. Heat Index Dew Point Humidity Pressure Visibility Wind Dir Wind Speed Gust Speed Precip Events Conditions
12:15 AM 59.0 °F - 59.0 °F 100% 30.15 in 10.0 mi Calm Calm - N/A   Clear
12:35 AM 59.0 °F - 59.0 °F 100% 30.15 in 10.0 mi NW 3.5 mph - N/A   Clear
12:55 AM 57.2 °F - 57.2 °F 100% 30.15 in 10.0 mi Calm Calm - N/A   Clear
1:15 AM 57.2 °F - 57.2 °F 100% 30.15 in 10.0 mi Calm Calm - N/A   Clear
1:35 AM 57.2 °F - 57.2 °F 100% 30.15 in 10.0 mi Calm Calm - N/A   Clear
1:55 AM 57.2 °F - 57.2 °F 100% 30.15 in 10.0 mi Calm Calm - N/A   Clear
2:15 AM 57.2 °F - 57.2 °F 100% 30.14 in 10.0 mi Calm Calm - N/A   Clear
2:35 AM 57.2 °F - 57.2 °F 100% 30.14 in 10.0 mi Calm Calm - N/A   Clear
2:55 AM 55.4 °F - 55.4 °F 100% 30.14 in 7.0 mi Calm Calm - N/A   Clear
3:15 AM 55.4 °F - 55.4 °F 100% 30.14 in 7.0 mi Calm Calm - N/A   Clear
3:35 AM 55.4 °F - 55.4 °F 100% 30.14 in 7.0 mi Calm Calm - N/A   Clear
3:55 AM 55.4 °F - 55.4 °F 100% 30.14 in 7.0 mi Calm Calm - N/A   Clear
4:15 AM 55.4 °F - 55.4 °F 100% 30.14 in 7.0 mi Calm Calm - N/A   Clear
4:35 AM 55.4 °F - 55.4 °F 100% 30.14 in 7.0 mi Calm Calm - N/A   Clear
4:55 AM 55.4 °F - 55.4 °F 100% 30.15 in 7.0 mi Calm Calm - N/A   Clear
5:15 AM 55.4 °F - 55.4 °F 100% 30.15 in 5.0 mi Calm Calm - N/A   Clear
5:35 AM 53.6 °F - 53.6 °F 100% 30.15 in 7.0 mi Calm Calm - N/A   Clear
5:55 AM 53.6 °F - 53.6 °F 100% 30.15 in 5.0 mi Calm Calm - N/A   Clear
6:15 AM 53.6 °F - 53.6 °F 100% 30.16 in 5.0 mi Calm Calm - N/A   Clear
6:35 AM 53.6 °F - 53.6 °F 100% 30.17 in 4.0 mi Calm Calm - N/A   Scattered Clouds
6:55 AM 57.2 °F - 57.2 °F 100% 30.17 in 4.0 mi Calm Calm - N/A   Mostly Cloudy
7:15 AM 57.2 °F - 57.2 °F 100% 30.17 in 7.0 mi Calm Calm - N/A   Mostly Cloudy
7:35 AM 60.8 °F - 60.8 °F 100% 30.18 in 10.0 mi Calm Calm - N/A   Scattered Clouds
7:55 AM 62.6 °F - 60.8 °F 94% 30.18 in 10.0 mi Calm Calm - N/A   Scattered Clouds
8:15 AM 62.6 °F - 60.8 °F 94% 30.19 in 10.0 mi Calm Calm - N/A   Mostly Cloudy
8:35 AM 62.6 °F - 60.8 °F 94% 30.19 in 10.0 mi Calm Calm - N/A   Scattered Clouds
8:55 AM 64.4 °F - 60.8 °F 88% 30.20 in 10.0 mi Calm Calm - N/A   Clear
9:15 AM 66.2 °F - 60.8 °F 83% 30.19 in 10.0 mi Calm Calm - N/A   Clear
9:35 AM 68.0 °F - 62.6 °F 83% 30.19 in 10.0 mi SSW 3.5 mph - N/A   Clear
9:55 AM 69.8 °F - 60.8 °F 73% 30.19 in 10.0 mi Calm Calm - N/A   Scattered Clouds
10:15 AM 71.6 °F - 62.6 °F 73% 30.19 in 10.0 mi South 3.5 mph - N/A   Scattered Clouds
10:35 AM 71.6 °F - 64.4 °F 78% 30.19 in 10.0 mi SSE 3.5 mph - N/A   Mostly Cloudy
10:55 AM 71.6 °F - 62.6 °F 73% 30.19 in 10.0 mi Calm Calm - N/A   Mostly Cloudy
11:15 AM 73.4 °F - 64.4 °F 73% 30.19 in 10.0 mi SSW 5.8 mph - N/A   Scattered Clouds
11:35 AM 73.4 °F - 64.4 °F 73% 30.19 in 10.0 mi SW 5.8 mph - N/A   Scattered Clouds
11:55 AM 75.2 °F - 64.4 °F 69% 30.18 in 10.0 mi WSW 5.8 mph - N/A   Scattered Clouds
12:15 PM 77.0 °F - 64.4 °F 65% 30.18 in 10.0 mi WSW 5.8 mph - N/A   Scattered Clouds
12:35 PM 77.0 °F - 64.4 °F 65% 30.18 in 10.0 mi SSW 5.8 mph - N/A   Scattered Clouds
12:55 PM 75.2 °F - 64.4 °F 69% 30.18 in 10.0 mi SW 5.8 mph - N/A   Scattered Clouds
1:15 PM 75.2 °F - 64.4 °F 69% 30.18 in 10.0 mi WNW 3.5 mph - N/A   Scattered Clouds
1:35 PM 78.8 °F - 62.6 °F 57% 30.17 in 10.0 mi South 3.5 mph - N/A   Scattered Clouds
1:55 PM 78.8 °F - 64.4 °F 61% 30.16 in 10.0 mi SW 6.9 mph - N/A   Scattered Clouds
2:15 PM 80.6 °F 81.8 °F 62.6 °F 54% 30.16 in 10.0 mi South 4.6 mph - N/A   Scattered Clouds
2:35 PM 78.8 °F - 62.6 °F 57% 30.15 in 10.0 mi SW 4.6 mph - N/A   Scattered Clouds
2:55 PM 80.6 °F 81.8 °F 62.6 °F 54% 30.15 in 10.0 mi SW 3.5 mph - N/A   Scattered Clouds
3:15 PM 80.6 °F 81.8 °F 62.6 °F 54% 30.14 in 10.0 mi Calm Calm - N/A   Mostly Cloudy
3:35 PM 80.6 °F 82.3 °F 64.4 °F 58% 30.14 in 10.0 mi Calm Calm - N/A   Scattered Clouds
3:55 PM 78.8 °F - 62.6 °F 57% 30.13 in 10.0 mi Calm Calm - N/A   Mostly Cloudy
4:15 PM 80.6 °F 81.8 °F 62.6 °F 54% 30.13 in 10.0 mi Calm Calm - N/A   Scattered Clouds
4:35 PM 80.6 °F 82.3 °F 64.4 °F 58% 30.12 in 10.0 mi South 3.5 mph - N/A   Scattered Clouds
4:55 PM 78.8 °F - 64.4 °F 61% 30.12 in 10.0 mi Calm Calm - N/A   Scattered Clouds
5:15 PM 80.6 °F 82.3 °F 64.4 °F 58% 30.11 in 10.0 mi South 3.5 mph - N/A   Scattered Clouds
5:35 PM 80.6 °F 82.3 °F 64.4 °F 58% 30.11 in 1.8 mi Calm Calm - N/A   Haze
5:55 PM 80.6 °F 82.7 °F 66.2 °F 61% 30.11 in 10.0 mi SSE 9.2 mph - N/A   Scattered Clouds
6:15 PM 78.8 °F - 66.2 °F 65% 30.11 in 2.5 mi South 5.8 mph - N/A   Haze
6:35 PM 77.0 °F - 66.2 °F 69% 30.11 in 10.0 mi South 4.6 mph - N/A   Mostly Cloudy
6:55 PM 77.0 °F - 68.0 °F 74% 30.11 in 10.0 mi South 6.9 mph - N/A   Overcast
7:15 PM 75.2 °F - 68.0 °F 78% 30.12 in 10.0 mi South 3.5 mph - N/A   Overcast
7:35 PM 77.0 °F - 66.2 °F 69% 30.12 in 10.0 mi SSW 3.5 mph - N/A   Overcast
7:55 PM 75.2 °F - 66.2 °F 73% 30.12 in 10.0 mi South 3.5 mph - N/A   Scattered Clouds
8:15 PM 75.2 °F - 66.2 °F 73% 30.12 in 10.0 mi South 4.6 mph - N/A   Mostly Cloudy
8:35 PM 75.2 °F - 66.2 °F 73% 30.12 in 10.0 mi South 3.5 mph - N/A   Scattered Clouds
8:55 PM 73.4 °F - 68.0 °F 83% 30.12 in 10.0 mi South 3.5 mph - N/A   Mostly Cloudy
9:15 PM 73.4 °F - 68.0 °F 83% 30.13 in 10.0 mi South 3.5 mph - N/A   Mostly Cloudy
9:35 PM 71.6 °F - 68.0 °F 88% 30.13 in 10.0 mi SSE 4.6 mph - N/A   Mostly Cloudy
9:55 PM 71.6 °F - 68.0 °F 88% 30.13 in 10.0 mi Calm Calm - N/A   Scattered Clouds
10:15 PM 69.8 °F - 66.2 °F 88% 30.14 in 10.0 mi Calm Calm - N/A   Clear
10:35 PM 69.8 °F - 66.2 °F 88% 30.14 in 10.0 mi Calm Calm - N/A   Clear
10:55 PM 69.8 °F - 68.0 °F 94% 30.15 in 10.0 mi Calm Calm - N/A   Mostly Cloudy
11:15 PM 69.8 °F - 68.0 °F 94% 30.14 in 10.0 mi Calm Calm - N/A   Scattered Clouds
11:35 PM 68.0 °F - 68.0 °F 100% 30.14 in 10.0 mi Calm Calm - N/A   Mostly Cloudy
11:55 PM 68.0 °F - 68.0 °F 100% 30.14 in 10.0 mi Calm Calm - N/A   Scattered Clouds